Precipitable_Water
0.30 0.24 0.20 0.20 0.20 0.20 0.21 0.22 0.23 0.25 0.29 0.30 0.31 0.31 0.30 0.30 0.33 0.38 0.41 0.46 0.48 0.43 0.39 0.41 0.43 0.46 0.48 0.50 0.57 0.65 0.71 0.68 0.66 0.65 0.68 0.72 0.71 0.73 0.76 0.79 0.83 0.86 0.89 1.03 1.08 1.09 1.08 1.10 1.15 1.18 1.22 1.18 1.15 1.10 1.05 0.96 0.89 0.84 0.74 0.71 0.68 0.74 0.78 0.78 0.77 0.75 0.74 0.72 0.73 0.77 0.76 0.78 0.81 0.81 0.82 0.76 0.76 0.80 0.80 0.84 0.85 0.87 0.88 0.90 0.92 0.94
0.29 0.24 0.21 0.21 0.21 0.21 0.22 0.22 0.22 0.25 0.28 0.29 0.28 0.28 0.28 0.29 0.29 0.36 0.38 0.45 0.48 0.43 0.38 0.44 0.44 0.45 0.47 0.52 0.57 0.64 0.62 0.57 0.60 0.62 0.67 0.71 0.73 0.73 0.75 0.78 0.82 0.89 0.99 1.04 1.04 1.07 1.08 1.09 1.13 1.16 1.18 1.15 1.05 1.05 1.05 0.94 0.90 0.79 0.72 0.73 0.76 0.79 0.80 0.78 0.74 0.74 0.75 0.79 0.76 0.70 0.72 0.77 0.78 0.77 0.74 0.72 0.75 0.79 0.83 0.86 0.86 0.86 0.89 0.91 0.93 0.96
0.26 0.21 0.20 0.20 0.20 0.18 0.21 0.22 0.23 0.24 0.25 0.30 0.28 0.27 0.27 0.28 0.34 0.37 0.40 0.44 0.44 0.43 0.37 0.42 0.39 0.40 0.46 0.52 0.59 0.58 0.57 0.59 0.62 0.64 0.65 0.68 0.70 0.73 0.75 0.77 0.83 0.87 0.91 0.97 1.01 1.04 1.06 1.08 1.12 1.13 1.13 1.15 1.13 1.03 1.00 0.96 0.94 0.80 0.74 0.75 0.76 0.77 0.76 0.76 0.77 0.75 0.70 0.76 0.78 0.76 0.75 0.77 0.76 0.79 0.77 0.74 0.77 0.79 0.79 0.81 0.84 0.87 0.91 0.92 0.93 0.94
0.23 0.22 0.21 0.21 0.20 0.20 0.20 0.22 0.21 0.23 0.25 0.28 0.27 0.26 0.23 0.26 0.29 0.27 0.34 0.41 0.42 0.38 0.35 0.38 0.37 0.38 0.44 0.53 0.57 0.59 0.59 0.61 0.65 0.68 0.69 0.71 0.67 0.71 0.72 0.76 0.80 0.82 0.86 0.90 0.96 0.99 1.03 1.06 1.10 1.11 1.10 1.12 1.13 1.05 0.98 0.98 0.93 0.82 0.76 0.71 0.71 0.76 0.76 0.75 0.74 0.74 0.70 0.70 0.77 0.81 0.80 0.80 0.77 0.71 0.76 0.76 0.76 0.76 0.76 0.78 0.84 0.88 0.91 0.91 0.90 0.91
0.20 0.22 0.23 0.22 0.21 0.22 0.20 0.21 0.23 0.24 0.25 0.28 0.25 0.23 0.23 0.27 0.29 0.29 0.30 0.37 0.40 0.40 0.40 0.38 0.36 0.35 0.40 0.41 0.48 0.58 0.65 0.64 0.65 0.68 0.69 0.73 0.74 0.74 0.77 0.81 0.85 0.84 0.86 0.89 0.96 1.00 1.01 1.02 1.05 1.07 1.10 1.13 1.10 1.04 1.00 0.99 0.87 0.81 0.76 0.70 0.73 0.77 0.76 0.75 0.74 0.72 0.73 0.73 0.71 0.75 0.76 0.79 0.75 0.72 0.70 0.69 0.68 0.72 0.75 0.77 0.80 0.83 0.88 0.89 0.90 0.91
0.21 0.21 0.20 0.20 0.19 0.22 0.22 0.20 0.23 0.24 0.21 0.23 0.23 0.23 0.23 0.24 0.25 0.29 0.33 0.32 0.31 0.31 0.36 0.34 0.27 0.26 0.35 0.38 0.41 0.50 0.56 0.56 0.62 0.60 0.61 0.64 0.69 0.72 0.72 0.76 0.84 0.90 0.95 0.93 0.96 1.02 1.04 1.05 1.07 1.08 1.08 1.08 1.09 1.06 1.07 1.02 0.87 0.83 0.76 0.71 0.77 0.78 0.77 0.71 0.70 0.74 0.75 0.72 0.68 0.66 0.63 0.58 0.57 0.56 0.58 0.58 0.60 0.64 0.65 0.69 0.80 0.83 0.84 0.86 0.88 0.89
0.21 0.23 0.22 0.21 0.22 0.22 0.23 0.21 0.23 0.25 0.22 0.20 0.22 0.25 0.23 0.24 0.24 0.27 0.31 0.30 0.26 0.24 0.31 0.37 0.26 0.23 0.32 0.34 0.39 0.47 0.50 0.50 0.58 0.56 0.58 0.61 0.64 0.66 0.68 0.73 0.78 0.84 0.90 0.99 1.03 1.06 1.07 1.05 1.04 1.04 1.04 1.06 1.06 1.08 1.11 1.03 0.89 0.83 0.75 0.72 0.75 0.74 0.75 0.73 0.73 0.79 0.79 0.76 0.70 0.68 0.67 0.66 0.58 0.52 0.52 0.59 0.66 0.67 0.70 0.76 0.79 0.80 0.83 0.84 0.84 0.87
0.24 0.23 0.21 0.21 0.21 0.21 0.22 0.20 0.23 0.22 0.20 0.19 0.23 0.23 0.24 0.24 0.24 0.26 0.30 0.29 0.28 0.34 0.35 0.36 0.31 0.25 0.24 0.31 0.40 0.44 0.45 0.48 0.49 0.50 0.53 0.58 0.60 0.61 0.63 0.70 0.76 0.83 0.88 0.95 1.01 1.03 1.05 1.03 1.00 0.99 1.04 1.07 1.09 1.11 1.11 1.01 0.87 0.75 0.71 0.71 0.71 0.74 0.76 0.73 0.78 0.80 0.84 0.78 0.73 0.69 0.68 0.70 0.63 0.57 0.55 0.61 0.65 0.70 0.73 0.74 0.77 0.78 0.81 0.83 0.85 0.86
0.25 0.23 0.23 0.20 0.19 0.20 0.20 0.23 0.24 0.21 0.19 0.19 0.23 0.26 0.25 0.25 0.25 0.26 0.29 0.28 0.30 0.30 0.26 0.31 0.33 0.26 0.25 0.33 0.42 0.44 0.42 0.45 0.45 0.45 0.47 0.52 0.56 0.58 0.59 0.66 0.73 0.80 0.87 0.95 0.97 0.99 1.02 1.00 1.01 1.04 1.05 1.11 1.13 1.13 1.08 0.97 0.83 0.72 0.71 0.72 0.72 0.73 0.76 0.76 0.81 0.81 0.83 0.78 0.75 0.74 0.70 0.66 0.66 0.66 0.65 0.66 0.68 0.68 0.71 0.70 0.74 0.74 0.77 0.80 0.83 0.86
0.26 0.28 0.25 0.21 0.19 0.19 0.20 0.23 0.22 0.23 0.20 0.20 0.24 0.26 0.28 0.28 0.28 0.29 0.30 0.29 0.30 0.28 0.24 0.29 0.32 0.23 0.24 0.33 0.36 0.44 0.40 0.40 0.41 0.44 0.45 0.50 0.52 0.53 0.56 0.61 0.69 0.76 0.83 0.92 0.97 1.02 1.03 1.04 1.05 1.10 1.12 1.11 1.12 1.13 1.08 0.97 0.84 0.70 0.69 0.69 0.70 0.71 0.74 0.76 0.75 0.80 0.83 0.79 0.78 0.75 0.72 0.65 0.62 0.69 0.72 0.74 0.69 0.68 0.69 0.66 0.69 0.72 0.73 0.75 0.77 0.80
0.29 0.31 0.29 0.19 0.19 0.21 0.19 0.22 0.22 0.23 0.25 0.27 0.26 0.26 0.27 0.28 0.30 0.33 0.31 0.28 0.29 0.25 0.25 0.30 0.31 0.27 0.21 0.29 0.32 0.33 0.34 0.37 0.40 0.44 0.49 0.52 0.55 0.56 0.56 0.58 0.62 0.69 0.78 0.84 0.91 0.98 1.00 1.03 1.06 1.09 1.06 1.08 1.11 1.11 1.03 0.90 0.75 0.66 0.65 0.65 0.65 0.69 0.73 0.73 0.72 0.75 0.76 0.80 0.80 0.80 0.77 0.70 0.65 0.71 0.72 0.71 0.72 0.71 0.69 0.66 0.66 0.67 0.69 0.72 0.73 0.77
0.30 0.30 0.29 0.28 0.28 0.24 0.22 0.20 0.24 0.25 0.24 0.25 0.23 0.24 0.24 0.26 0.28 0.27 0.28 0.29 0.24 0.21 0.26 0.28 0.27 0.26 0.21 0.27 0.34 0.36 0.40 0.42 0.42 0.41 0.44 0.49 0.51 0.52 0.55 0.57 0.59 0.66 0.74 0.81 0.85 0.88 0.92 0.93 0.97 1.01 0.99 1.00 1.01 1.00 0.91 0.79 0.69 0.63 0.62 0.63 0.63 0.68 0.70 0.72 0.72 0.74 0.77 0.79 0.79 0.80 0.79 0.71 0.66 0.69 0.69 0.71 0.71 0.71 0.67 0.67 0.64 0.66 0.66 0.66 0.70 0.71
0.29 0.30 0.32 0.32 0.27 0.25 0.24 0.22 0.22 0.24 0.25 0.25 0.26 0.24 0.19 0.19 0.21 0.18 0.23 0.20 0.20 0.17 0.22 0.27 0.27 0.25 0.25 0.30 0.34 0.37 0.41 0.44 0.46 0.46 0.46 0.50 0.51 0.54 0.59 0.58 0.59 0.62 0.68 0.74 0.78 0.81 0.82 0.81 0.85 0.87 0.89 0.90 0.90 0.86 0.82 0.74 0.68 0.63 0.62 0.62 0.61 0.64 0.72 0.72 0.74 0.74 0.79 0.80 0.80 0.75 0.74 0.71 0.68 0.68 0.68 0.69 0.70 0.72 0.70 0.69 0.67 0.64 0.61 0.63 0.63 0.66
0.28 0.33 0.31 0.30 0.29 0.31 0.27 0.21 0.20 0.20 0.21 0.22 0.23 0.21 0.20 0.17 0.17 0.17 0.19 0.20 0.18 0.21 0.26 0.27 0.29 0.23 0.27 0.32 0.36 0.37 0.43 0.45 0.46 0.49 0.51 0.53 0.53 0.57 0.60 0.62 0.62 0.63 0.66 0.69 0.73 0.75 0.75 0.76 0.81 0.84 0.84 0.85 0.87 0.86 0.81 0.76 0.71 0.69 0.67 0.67 0.63 0.67 0.74 0.74 0.71 0.73 0.79 0.80 0.80 0.78 0.72 0.71 0.71 0.70 0.71 0.70 0.69 0.72 0.71 0.71 0.70 0.68 0.64 0.63 0.62 0.63
0.22 0.23 0.28 0.30 0.29 0.34 0.29 0.26 0.23 0.20 0.19 0.21 0.25 0.24 0.22 0.22 0.19 0.16 0.18 0.15 0.14 0.17 0.23 0.28 0.26 0.21 0.25 0.27 0.39 0.38 0.44 0.47 0.48 0.51 0.55 0.59 0.61 0.64 0.66 0.65 0.67 0.66 0.67 0.69 0.69 0.70 0.70 0.72 0.77 0.79 0.80 0.81 0.85 0.88 0.85 0.81 0.78 0.77 0.74 0.70 0.66 0.67 0.73 0.73 0.69 0.73 0.78 0.80 0.80 0.77 0.74 0.72 0.73 0.71 0.72 0.73 0.75 0.74 0.72 0.71 0.70 0.70 0.68 0.64 0.63 0.63
0.24 0.24 0.30 0.35 0.34 0.33 0.29 0.28 0.26 0.21 0.18 0.22 0.23 0.27 0.22 0.21 0.25 0.18 0.20 0.21 0.20 0.20 0.22 0.24 0.23 0.28 0.30 0.38 0.41 0.43 0.45 0.49 0.52 0.53 0.56 0.58 0.64 0.67 0.66 0.64 0.64 0.65 0.66 0.67 0.64 0.66 0.69 0.72 0.74 0.76 0.75 0.78 0.83 0.87 0.86 0.82 0.81 0.80 0.78 0.74 0.68 0.69 0.73 0.74 0.71 0.73 0.79 0.81 0.83 0.81 0.77 0.72 0.73 0.73 0.73 0.74 0.76 0.76 0.75 0.72 0.70 0.69 0.69 0.66 0.63 0.62
0.25 0.24 0.32 0.34 0.35 0.32 0.30 0.31 0.28 0.21 0.16 0.20 0.22 0.21 0.22 0.25 0.25 0.22 0.25 0.27 0.26 0.24 0.20 0.29 0.28 0.31 0.39 0.41 0.44 0.47 0.47 0.48 0.51 0.54 0.56 0.57 0.60 0.64 0.62 0.63 0.65 0.66 0.67 0.68 0.66 0.64 0.67 0.70 0.72 0.73 0.74 0.77 0.82 0.83 0.83 0.83 0.83 0.83 0.82 0.79 0.72 0.70 0.76 0.77 0.76 0.76 0.81 0.83 0.82 0.81 0.80 0.76 0.76 0.75 0.72 0.72 0.74 0.74 0.75 0.74 0.71 0.69 0.68 0.67 0.62 0.61
0.23 0.24 0.33 0.32 0.30 0.36 0.37 0.34 0.31 0.26 0.25 0.22 0.22 0.24 0.30 0.31 0.31 0.27 0.19 0.22 0.22 0.19 0.21 0.27 0.25 0.26 0.27 0.26 0.43 0.44 0.44 0.47 0.48 0.51 0.55 0.58 0.61 0.59 0.60 0.62 0.64 0.65 0.67 0.69 0.70 0.69 0.70 0.71 0.71 0.73 0.77 0.82 0.83 0.82 0.83 0.84 0.87 0.88 0.87 0.86 0.79 0.73 0.76 0.78 0.79 0.79 0.81 0.82 0.80 0.78 0.76 0.76 0.78 0.77 0.75 0.77 0.76 0.76 0.74 0.71 0.68 0.65 0.62 0.61 0.60 0.64
0.29 0.22 0.30 0.34 0.34 0.35 0.36 0.32 0.30 0.30 0.32 0.26 0.27 0.34 0.26 0.23 0.23 0.29 0.25 0.20 0.18 0.18 0.21 0.26 0.28 0.28 0.30 0.30 0.39 0.40 0.43 0.46 0.48 0.53 0.55 0.56 0.58 0.57 0.59 0.62 0.65 0.67 0.69 0.71 0.72 0.71 0.70 0.71 0.73 0.74 0.74 0.80 0.84 0.87 0.88 0.89 0.91 0.93 0.93 0.94 0.90 0.78 0.78 0.80 0.81 0.81 0.80 0.82 0.80 0.78 0.75 0.73 0.78 0.79 0.79 0.81 0.79 0.77 0.71 0.68 0.67 0.64 0.62 0.59 0.59 0.65
0.32 0.23 0.25 0.35 0.34 0.36 0.37 0.36 0.29 0.28 0.37 0.40 0.35 0.34 0.36 0.32 0.27 0.25 0.25 0.26 0.23 0.18 0.21 0.23 0.28 0.25 0.35 0.35 0.39 0.40 0.44 0.47 0.49 0.51 0.52 0.54 0.55 0.57 0.58 0.61 0.66 0.67 0.68 0.70 0.72 0.73 0.72 0.71 0.73 0.74 0.74 0.76 0.81 0.85 0.89 0.90 0.92 0.92 0.95 0.97 0.97 0.92 0.83 0.82 0.81 0.80 0.78 0.80 0.80 0.79 0.77 0.78 0.81 0.83 0.82 0.82 0.79 0.75 0.71 0.68 0.66 0.64 0.62 0.59 0.60 0.64
0.26 0.33 0.21 0.29 0.36 0.36 0.30 0.36 0.33 0.35 0.32 0.34 0.34 0.32 0.34 0.33 0.36 0.31 0.33 0.29 0.26 0.24 0.22 0.23 0.24 0.28 0.35 0.42 0.40 0.40 0.43 0.48 0.50 0.50 0.53 0.55 0.57 0.60 0.61 0.63 0.67 0.69 0.70 0.71 0.72 0.74 0.74 0.74 0.75 0.76 0.78 0.80 0.85 0.90 0.92 0.92 0.91 0.93 0.96 0.97 0.99 0.97 0.90 0.84 0.82 0.80 0.78 0.80 0.80 0.78 0.75 0.79 0.81 0.84 0.83 0.80 0.77 0.73 0.70 0.69 0.68 0.65 0.63 0.59 0.58 0.64
0.29 0.28 0.22 0.28 0.28 0.29 0.32 0.43 0.42 0.42 0.40 0.37 0.35 0.33 0.35 0.31 0.28 0.23 0.23 0.37 0.33 0.28 0.25 0.24 0.24 0.33 0.42 0.48 0.46 0.46 0.48 0.49 0.51 0.52 0.53 0.56 0.59 0.62 0.64 0.66 0.67 0.66 0.70 0.72 0.73 0.74 0.75 0.77 0.78 0.80 0.83 0.86 0.88 0.89 0.90 0.92 0.93 0.94 0.96 0.98 1.00 1.01 0.97 0.88 0.83 0.80 0.79 0.79 0.80 0.77 0.74 0.79 0.84 0.86 0.84 0.79 0.75 0.72 0.71 0.69 0.67 0.65 0.63 0.58 0.58 0.62
0.37 0.33 0.28 0.24 0.28 0.31 0.35 0.44 0.48 0.48 0.46 0.44 0.41 0.38 0.42 0.40 0.38 0.32 0.24 0.29 0.33 0.33 0.35 0.33 0.28 0.30 0.46 0.52 0.52 0.52 0.52 0.53 0.56 0.57 0.55 0.57 0.60 0.63 0.65 0.66 0.68 0.68 0.68 0.70 0.73 0.75 0.77 0.78 0.80 0.81 0.82 0.84 0.87 0.87 0.89 0.91 0.92 0.93 0.96 0.99 1.01 1.00 0.97 0.94 0.88 0.83 0.79 0.78 0.77 0.76 0.74 0.78 0.83 0.85 0.83 0.78 0.75 0.74 0.73 0.70 0.68 0.67 0.61 0.58 0.57 0.61
0.45 0.29 0.24 0.26 0.32 0.36 0.38 0.45 0.47 0.47 0.45 0.40 0.43 0.46 0.43 0.38 0.39 0.37 0.34 0.36 0.30 0.33 0.30 0.31 0.27 0.32 0.44 0.52 0.53 0.52 0.55 0.56 0.58 0.58 0.58 0.59 0.61 0.63 0.64 0.65 0.67 0.69 0.72 0.74 0.76 0.77 0.77 0.77 0.80 0.81 0.80 0.80 0.84 0.87 0.89 0.91 0.93 0.96 0.97 0.98 0.99 0.97 0.97 0.97 0.95 0.85 0.78 0.77 0.77 0.76 0.74 0.76 0.82 0.84 0.82 0.76 0.75 0.75 0.76 0.72 0.68 0.63 0.58 0.56 0.56 0.57
0.25 0.33 0.27 0.22 0.22 0.25 0.28 0.33 0.37 0.42 0.42 0.39 0.37 0.42 0.44 0.45 0.45 0.44 0.42 0.42 0.31 0.33 0.33 0.30 0.24 0.30 0.43 0.51 0.52 0.52 0.53 0.54 0.56 0.58 0.59 0.58 0.60 0.62 0.65 0.67 0.69 0.70 0.70 0.73 0.74 0.74 0.75 0.75 0.75 0.76 0.76 0.77 0.81 0.87 0.91 0.93 0.94 0.95 0.96 0.96 0.95 0.96 0.99 0.99 0.99 0.90 0.78 0.76 0.76 0.75 0.75 0.76 0.81 0.82 0.80 0.75 0.75 0.75 0.77 0.73 0.67 0.61 0.56 0.56 0.54 0.57
0.29 0.28 0.25 0.18 0.15 0.13 0.14 0.17 0.22 0.28 0.33 0.38 0.41 0.41 0.43 0.42 0.41 0.38 0.32 0.34 0.27 0.31 0.33 0.28 0.28 0.36 0.43 0.47 0.48 0.49 0.50 0.50 0.53 0.57 0.60 0.63 0.62 0.62 0.65 0.68 0.70 0.72 0.72 0.74 0.75 0.76 0.74 0.74 0.73 0.74 0.76 0.78 0.82 0.87 0.91 0.94 0.94 0.95 0.95 0.94 0.93 0.93 0.96 0.98 0.98 0.94 0.83 0.76 0.74 0.75 0.75 0.75 0.78 0.81 0.79 0.76 0.74 0.75 0.76 0.75 0.70 0.63 0.57 0.56 0.52 0.56
0.36 0.36 0.31 0.28 0.24 0.21 0.24 0.27 0.35 0.37 0.33 0.28 0.33 0.36 0.38 0.42 0.44 0.42 0.39 0.33 0.28 0.33 0.30 0.33 0.32 0.33 0.35 0.39 0.42 0.46 0.48 0.47 0.47 0.50 0.54 0.57 0.61 0.63 0.64 0.66 0.69 0.71 0.73 0.74 0.75 0.75 0.75 0.75 0.75 0.75 0.77 0.80 0.84 0.90 0.93 0.95 0.95 0.94 0.94 0.93 0.93 0.94 0.95 0.97 0.97 0.95 0.88 0.78 0.75 0.74 0.75 0.75 0.77 0.81 0.80 0.76 0.75 0.76 0.77 0.75 0.72 0.67 0.58 0.55 0.51 0.53
0.41 0.36 0.38 0.36 0.35 0.36 0.37 0.35 0.38 0.38 0.32 0.34 0.33 0.34 0.38 0.38 0.40 0.38 0.34 0.31 0.38 0.32 0.27 0.35 0.37 0.34 0.35 0.39 0.42 0.43 0.45 0.46 0.48 0.48 0.50 0.53 0.57 0.62 0.67 0.67 0.67 0.69 0.71 0.75 0.77 0.77 0.76 0.74 0.75 0.77 0.81 0.84 0.88 0.92 0.94 0.95 0.94 0.93 0.94 0.92 0.91 0.93 0.93 0.94 0.95 0.94 0.92 0.84 0.76 0.75 0.76 0.78 0.81 0.83 0.81 0.77 0.76 0.77 0.77 0.76 0.72 0.68 0.62 0.54 0.49 0.50
0.40 0.34 0.41 0.39 0.38 0.40 0.41 0.40 0.41 0.39 0.38 0.38 0.38 0.37 0.36 0.38 0.37 0.34 0.35 0.38 0.38 0.31 0.27 0.34 0.37 0.35 0.36 0.40 0.44 0.46 0.48 0.47 0.47 0.49 0.51 0.53 0.55 0.59 0.60 0.61 0.62 0.62 0.64 0.66 0.67 0.69 0.72 0.74 0.77 0.78 0.82 0.86 0.89 0.89 0.90 0.91 0.93 0.95 0.96 0.93 0.90 0.89 0.88 0.90 0.91 0.90 0.90 0.88 0.81 0.76 0.79 0.80 0.80 0.84 0.83 0.79 0.77 0.77 0.76 0.74 0.72 0.70 0.64 0.54 0.44 0.49
0.42 0.37 0.41 0.40 0.37 0.38 0.40 0.41 0.42 0.40 0.40 0.38 0.39 0.40 0.40 0.40 0.39 0.39 0.38 0.40 0.39 0.36 0.38 0.39 0.39 0.38 0.41 0.43 0.47 0.49 0.50 0.51 0.52 0.55 0.55 0.54 0.55 0.58 0.58 0.58 0.60 0.63 0.65 0.67 0.68 0.69 0.70 0.71 0.76 0.80 0.83 0.85 0.86 0.87 0.88 0.90 0.92 0.95 0.94 0.90 0.90 0.88 0.88 0.89 0.88 0.88 0.89 0.89 0.87 0.82 0.81 0.82 0.81 0.82 0.83 0.80 0.76 0.75 0.76 0.75 0.74 0.70 0.63 0.53 0.45 0.48
0.38 0.34 0.39 0.38 0.32 0.32 0.36 0.40 0.41 0.41 0.39 0.35 0.38 0.40 0.40 0.41 0.40 0.42 0.41 0.40 0.41 0.39 0.40 0.40 0.39 0.37 0.45 0.50 0.49 0.50 0.51 0.53 0.51 0.52 0.54 0.57 0.58 0.57 0.57 0.58 0.59 0.61 0.64 0.66 0.67 0.69 0.72 0.73 0.74 0.79 0.84 0.87 0.89 0.87 0.86 0.89 0.93 0.96 0.96 0.91 0.89 0.87 0.86 0.86 0.86 0.86 0.87 0.88 0.90 0.88 0.85 0.83 0.82 0.81 0.80 0.79 0.77 0.76 0.77 0.75 0.73 0.69 0.63 0.55 0.49 0.49
0.43 0.36 0.41 0.37 0.30 0.29 0.35 0.35 0.36 0.37 0.37 0.35 0.36 0.39 0.40 0.40 0.37 0.39 0.37 0.41 0.38 0.36 0.37 0.37 0.35 0.36 0.44 0.50 0.51 0.50 0.50 0.49 0.48 0.50 0.52 0.56 0.59 0.58 0.56 0.55 0.57 0.59 0.61 0.62 0.62 0.64 0.70 0.73 0.76 0.78 0.81 0.85 0.88 0.87 0.85 0.87 0.92 0.95 0.93 0.93 0.87 0.88 0.87 0.86 0.86 0.84 0.85 0.88 0.90 0.90 0.88 0.85 0.83 0.81 0.80 0.80 0.77 0.76 0.79 0.76 0.72 0.68 0.64 0.58 0.51 0.49
0.41 0.38 0.34 0.35 0.30 0.30 0.38 0.39 0.36 0.35 0.32 0.28 0.32 0.37 0.41 0.43 0.43 0.43 0.43 0.44 0.43 0.42 0.36 0.33 0.35 0.43 0.45 0.49 0.46 0.47 0.48 0.48 0.50 0.53 0.54 0.56 0.59 0.59 0.58 0.57 0.58 0.59 0.61 0.62 0.60 0.59 0.62 0.71 0.75 0.77 0.79 0.82 0.85 0.86 0.87 0.89 0.89 0.89 0.90 0.91 0.91 0.91 0.89 0.88 0.88 0.87 0.86 0.88 0.89 0.89 0.90 0.89 0.87 0.84 0.80 0.80 0.79 0.78 0.78 0.75 0.70 0.67 0.63 0.58 0.54 0.50
0.41 0.40 0.36 0.40 0.31 0.32 0.38 0.39 0.39 0.31 0.23 0.26 0.41 0.46 0.46 0.41 0.42 0.38 0.38 0.40 0.44 0.45 0.42 0.44 0.44 0.47 0.47 0.47 0.45 0.45 0.48 0.50 0.53 0.57 0.60 0.59 0.59 0.59 0.59 0.59 0.59 0.61 0.62 0.65 0.64 0.61 0.61 0.67 0.76 0.80 0.81 0.81 0.85 0.86 0.88 0.92 0.90 0.90 0.91 0.91 0.92 0.88 0.88 0.88 0.90 0.88 0.87 0.88 0.88 0.89 0.90 0.91 0.90 0.87 0.84 0.81 0.80 0.78 0.76 0.74 0.69 0.66 0.65 0.60 0.56 0.51
0.41 0.42 0.38 0.42 0.35 0.33 0.38 0.38 0.31 0.24 0.26 0.42 0.47 0.48 0.48 0.48 0.47 0.44 0.45 0.47 0.48 0.48 0.48 0.46 0.47 0.46 0.47 0.48 0.49 0.51 0.53 0.56 0.60 0.60 0.60 0.62 0.62 0.60 0.59 0.59 0.60 0.61 0.65 0.68 0.67 0.65 0.65 0.66 0.68 0.77 0.83 0.84 0.85 0.88 0.91 0.93 0.95 0.95 0.93 0.92 0.89 0.88 0.86 0.87 0.89 0.91 0.90 0.87 0.87 0.89 0.90 0.91 0.91 0.90 0.88 0.84 0.81 0.78 0.76 0.74 0.70 0.67 0.65 0.60 0.54 0.53
0.39 0.40 0.42 0.40 0.41 0.41 0.36 0.35 0.23 0.25 0.38 0.44 0.46 0.47 0.54 0.53 0.52 0.46 0.42 0.47 0.49 0.48 0.48 0.45 0.48 0.49 0.50 0.50 0.52 0.55 0.56 0.59 0.60 0.62 0.63 0.65 0.67 0.64 0.61 0.59 0.62 0.65 0.68 0.72 0.69 0.68 0.67 0.66 0.65 0.66 0.73 0.86 0.91 0.91 0.92 0.91 0.95 0.93 0.90 0.93 0.89 0.87 0.87 0.87 0.88 0.89 0.91 0.89 0.87 0.88 0.90 0.91 0.91 0.92 0.91 0.88 0.83 0.79 0.77 0.75 0.71 0.67 0.66 0.61 0.56 0.56
0.41 0.44 0.43 0.37 0.44 0.33 0.35 0.34 0.33 0.41 0.37 0.40 0.41 0.46 0.47 0.44 0.45 0.42 0.35 0.41 0.48 0.50 0.48 0.47 0.48 0.50 0.50 0.52 0.55 0.56 0.58 0.58 0.55 0.58 0.64 0.65 0.66 0.67 0.66 0.65 0.66 0.68 0.71 0.75 0.78 0.75 0.74 0.74 0.73 0.73 0.74 0.77 0.83 0.87 0.88 0.90 0.92 0.91 0.89 0.89 0.91 0.87 0.86 0.86 0.86 0.87 0.89 0.89 0.89 0.89 0.91 0.92 0.92 0.93 0.93 0.91 0.86 0.81 0.79 0.77 0.74 0.70 0.69 0.63 0.57 0.55
0.47 0.38 0.45 0.38 0.39 0.43 0.36 0.32 0.32 0.31 0.26 0.33 0.43 0.50 0.55 0.56 0.54 0.53 0.46 0.41 0.53 0.55 0.56 0.53 0.50 0.51 0.52 0.53 0.55 0.57 0.58 0.52 0.48 0.52 0.62 0.66 0.68 0.68 0.69 0.70 0.71 0.72 0.75 0.77 0.82 0.81 0.81 0.79 0.78 0.79 0.76 0.76 0.79 0.86 0.90 0.91 0.90 0.90 0.89 0.89 0.90 0.88 0.87 0.85 0.84 0.87 0.88 0.88 0.90 0.91 0.92 0.94 0.95 0.95 0.96 0.93 0.88 0.85 0.82 0.81 0.77 0.72 0.70 0.64 0.59 0.56
0.49 0.49 0.48 0.42 0.40 0.40 0.36 0.31 0.30 0.27 0.31 0.41 0.45 0.52 0.57 0.59 0.58 0.56 0.45 0.37 0.54 0.59 0.60 0.58 0.55 0.56 0.56 0.55 0.56 0.58 0.52 0.46 0.48 0.54 0.63 0.67 0.67 0.69 0.67 0.69 0.71 0.73 0.75 0.75 0.76 0.78 0.79 0.80 0.80 0.81 0.81 0.78 0.75 0.83 0.90 0.93 0.92 0.90 0.88 0.91 0.90 0.88 0.86 0.86 0.87 0.88 0.87 0.88 0.91 0.93 0.95 0.97 0.98 0.98 0.97 0.95 0.93 0.90 0.85 0.83 0.80 0.75 0.71 0.67 0.63 0.58
0.43 0.44 0.44 0.40 0.37 0.38 0.37 0.33 0.30 0.36 0.34 0.44 0.51 0.55 0.59 0.63 0.61 0.51 0.33 0.35 0.55 0.63 0.65 0.63 0.60 0.59 0.60 0.60 0.59 0.57 0.52 0.47 0.50 0.58 0.67 0.69 0.71 0.72 0.71 0.70 0.72 0.73 0.74 0.76 0.77 0.78 0.78 0.81 0.83 0.81 0.79 0.77 0.78 0.81 0.85 0.88 0.90 0.90 0.90 0.90 0.91 0.88 0.87 0.88 0.91 0.94 0.95 0.95 0.94 0.95 0.96 0.98 1.00 0.99 0.97 0.95 0.94 0.93 0.90 0.89 0.85 0.80 0.74 0.68 0.64 0.61
0.40 0.42 0.43 0.36 0.38 0.38 0.36 0.35 0.37 0.38 0.47 0.54 0.55 0.58 0.61 0.62 0.54 0.38 0.31 0.44 0.63 0.66 0.67 0.68 0.66 0.66 0.65 0.62 0.62 0.56 0.61 0.63 0.65 0.68 0.70 0.71 0.70 0.71 0.75 0.77 0.77 0.77 0.76 0.76 0.75 0.78 0.77 0.78 0.79 0.78 0.79 0.80 0.84 0.84 0.85 0.85 0.84 0.85 0.88 0.90 0.89 0.87 0.90 0.95 0.97 0.97 0.95 0.99 1.01 1.00 1.00 1.00 0.99 0.98 0.98 0.98 0.96 0.95 0.94 0.92 0.89 0.85 0.79 0.71 0.66 0.62
0.36 0.39 0.40 0.41 0.36 0.35 0.37 0.33 0.34 0.38 0.48 0.56 0.60 0.61 0.63 0.53 0.38 0.38 0.57 0.69 0.69 0.66 0.70 0.71 0.69 0.69 0.68 0.67 0.66 0.66 0.68 0.71 0.73 0.73 0.72 0.71 0.70 0.72 0.75 0.76 0.78 0.79 0.81 0.80 0.78 0.78 0.76 0.75 0.76 0.77 0.78 0.81 0.88 0.86 0.85 0.84 0.80 0.80 0.82 0.84 0.85 0.89 0.97 0.99 0.98 0.98 0.99 0.98 1.01 1.04 1.06 1.09 1.07 1.06 1.01 1.00 0.99 0.96 0.93 0.94 0.92 0.89 0.85 0.78 0.69 0.62
0.36 0.33 0.33 0.34 0.39 0.39 0.39 0.34 0.32 0.27 0.47 0.60 0.59 0.58 0.63 0.47 0.51 0.63 0.68 0.70 0.72 0.69 0.68 0.69 0.70 0.71 0.72 0.68 0.70 0.70 0.69 0.70 0.72 0.74 0.75 0.75 0.74 0.73 0.74 0.74 0.73 0.74 0.76 0.78 0.78 0.79 0.78 0.75 0.75 0.75 0.77 0.78 0.82 0.88 0.86 0.82 0.76 0.76 0.79 0.78 0.81 0.91 0.96 0.98 0.97 0.97 0.98 1.00 1.01 1.00 0.99 1.02 1.00 0.98 0.97 0.98 0.98 0.97 0.95 0.95 0.92 0.90 0.89 0.83 0.76 0.67
0.46 0.34 0.36 0.39 0.43 0.34 0.33 0.31 0.32 0.43 0.52 0.60 0.57 0.47 0.57 0.60 0.66 0.69 0.67 0.63 0.69 0.70 0.69 0.69 0.71 0.73 0.74 0.72 0.70 0.70 0.71 0.71 0.72 0.74 0.74 0.75 0.76 0.76 0.75 0.75 0.74 0.74 0.73 0.75 0.77 0.78 0.79 0.77 0.77 0.76 0.78 0.79 0.80 0.84 0.88 0.85 0.79 0.78 0.77 0.77 0.84 0.89 0.93 0.94 0.95 0.95 0.95 0.95 0.97 1.01 1.00 1.01 1.00 0.97 0.94 0.93 0.95 0.95 0.95 0.94 0.93 0.91 0.89 0.88 0.83 0.74
0.47 0.38 0.41 0.34 0.44 0.38 0.35 0.40 0.48 0.55 0.57 0.61 0.61 0.60 0.63 0.68 0.70 0.69 0.69 0.67 0.66 0.69 0.73 0.69 0.69 0.72 0.73 0.71 0.70 0.70 0.69 0.72 0.72 0.73 0.72 0.73 0.74 0.75 0.74 0.74 0.74 0.73 0.73 0.73 0.73 0.75 0.76 0.75 0.74 0.75 0.75 0.77 0.78 0.82 0.84 0.87 0.82 0.79 0.77 0.80 0.86 0.88 0.91 0.93 0.95 0.94 0.92 0.93 0.96 0.96 0.97 0.98 0.99 0.99 0.98 0.94 0.92 0.89 0.89 0.90 0.90 0.86 0.88 0.87 0.84 0.81
0.36 0.40 0.46 0.40 0.40 0.47 0.50 0.52 0.53 0.52 0.53 0.56 0.63 0.64 0.61 0.62 0.66 0.67 0.66 0.63 0.67 0.69 0.70 0.67 0.68 0.69 0.69 0.69 0.64 0.64 0.65 0.67 0.68 0.70 0.72 0.72 0.71 0.72 0.72 0.71 0.71 0.71 0.71 0.72 0.72 0.72 0.72 0.71 0.71 0.72 0.72 0.74 0.77 0.80 0.84 0.86 0.86 0.80 0.80 0.83 0.86 0.88 0.89 0.91 0.92 0.92 0.90 0.89 0.90 0.92 0.94 0.93 0.95 1.01 1.03 0.99 0.93 0.90 0.88 0.85 0.84 0.83 0.83 0.83 0.84 0.83
0.34 0.36 0.34 0.31 0.41 0.35 0.32 0.47 0.46 0.48 0.50 0.52 0.53 0.56 0.59 0.60 0.59 0.59 0.57 0.55 0.55 0.59 0.62 0.65 0.65 0.65 0.67 0.67 0.63 0.61 0.61 0.63 0.64 0.66 0.67 0.66 0.64 0.64 0.64 0.64 0.64 0.65 0.66 0.65 0.68 0.69 0.69 0.69 0.69 0.68 0.68 0.70 0.76 0.81 0.84 0.85 0.87 0.87 0.86 0.84 0.86 0.88 0.90 0.88 0.87 0.88 0.91 0.90 0.92 0.95 0.97 0.96 0.97 0.96 0.94 0.90 0.88 0.88 0.87 0.85 0.82 0.80 0.79 0.79 0.79 0.81
0.30 0.43 0.32 0.35 0.34 0.31 0.32 0.38 0.43 0.46 0.47 0.50 0.49 0.48 0.49 0.53 0.57 0.58 0.56 0.56 0.57 0.57 0.57 0.58 0.58 0.57 0.60 0.58 0.59 0.58 0.58 0.59 0.58 0.59 0.60 0.60 0.58 0.58 0.58 0.59 0.58 0.57 0.58 0.61 0.64 0.67 0.69 0.69 0.66 0.65 0.67 0.70 0.74 0.78 0.82 0.86 0.88 0.89 0.89 0.88 0.88 0.89 0.90 0.87 0.84 0.83 0.85 0.88 0.91 0.92 0.94 0.95 0.95 0.94 0.93 0.91 0.87 0.84 0.83 0.82 0.81 0.78 0.76 0.75 0.75 0.76
0.36 0.35 0.28 0.33 0.29 0.33 0.36 0.39 0.41 0.41 0.41 0.42 0.44 0.46 0.47 0.49 0.49 0.49 0.50 0.50 0.49 0.47 0.48 0.51 0.54 0.52 0.51 0.50 0.52 0.51 0.50 0.53 0.55 0.56 0.55 0.56 0.57 0.56 0.55 0.55 0.56 0.56 0.57 0.59 0.61 0.64 0.65 0.67 0.67 0.66 0.66 0.68 0.74 0.77 0.79 0.81 0.83 0.87 0.90 0.90 0.92 0.94 0.92 0.88 0.86 0.84 0.83 0.86 0.89 0.89 0.90 0.91 0.92 0.92 0.91 0.90 0.88 0.85 0.82 0.79 0.78 0.76 0.76 0.79 0.80 0.80
0.24 0.19 0.26 0.25 0.22 0.23 0.24 0.28 0.33 0.26 0.25 0.30 0.34 0.37 0.38 0.41 0.41 0.41 0.43 0.42 0.42 0.42 0.42 0.42 0.44 0.48 0.50 0.50 0.50 0.50 0.48 0.48 0.51 0.53 0.54 0.55 0.56 0.57 0.57 0.57 0.58 0.58 0.59 0.62 0.63 0.63 0.64 0.66 0.67 0.66 0.65 0.66 0.69 0.73 0.75 0.78 0.80 0.83 0.86 0.90 0.93 0.94 0.92 0.92 0.90 0.88 0.85 0.85 0.85 0.85 0.86 0.87 0.88 0.88 0.88 0.87 0.85 0.83 0.83 0.85 0.84 0.82 0.77 0.76 0.80 0.81
0.26 0.30 0.29 0.26 0.26 0.25 0.31 0.35 0.36 0.36 0.35 0.36 0.37 0.39 0.40 0.41 0.40 0.39 0.38 0.39 0.41 0.42 0.43 0.42 0.41 0.43 0.46 0.48 0.51 0.49 0.47 0.47 0.50 0.52 0.53 0.55 0.57 0.59 0.60 0.60 0.59 0.60 0.61 0.63 0.62 0.61 0.62 0.63 0.65 0.65 0.65 0.65 0.66 0.67 0.71 0.75 0.78 0.81 0.84 0.87 0.91 0.93 0.92 0.94 0.92 0.90 0.89 0.88 0.87 0.86 0.86 0.85 0.84 0.85 0.85 0.85 0.85 0.84 0.81 0.81 0.84 0.84 0.82 0.79 0.79 0.82
Wind_Speed
2 3 3 1 1 1 0 0 0 1 2 3 4 5 5 4 4 4 5 5 6 7 5 3 3 2 2 3 3 3 2 1 1 0 1 2 4 5 5 7 8 9 9 9 10 11 11 11 12 12 11 11 10 9 9 9 9 8 8 8 8 7 6 6 5 5 6 6 6 7 7 7 7 8 8 8 8 8 8 9 9 10 10 10 10 10
3 3 1 1 1 1 1 1 2 1 3 4 4 4 4 4 3 3 4 4 5 6 4 3 3 1 1 2 3 3 2 0 1 1 1 0 2 4 4 6 7 7 7 8 10 11 12 12 12 12 12 11 11 11 10 10 10 9 9 9 8 7 6 6 6 6 6 7 7 8 7 8 8 8 8 9 9 9 9 9 9 10 10 10 10 10
2 2 1 2 2 1 2 4 3 1 2 4 4 4 4 3 4 4 4 4 5 5 4 4 3 2 1 2 2 2 1 0 2 2 2 2 2 3 3 5 5 5 7 8 10 11 12 13 13 13 13 12 12 12 11 10 10 10 10 9 8 7 6 6 5 6 6 7 7 7 7 7 8 9 9 9 9 9 9 9 10 9 9 9 9 9
2 1 2 2 4 4 3 5 5 1 1 3 4 4 3 2 4 4 3 3 3 4 4 4 4 4 3 3 2 0 1 1 2 2 3 3 2 3 4 4 5 5 6 8 10 11 12 14 14 14 14 13 13 13 12 11 11 11 10 10 9 8 7 6 5 6 6 7 7 7 8 8 8 8 9 9 9 9 9 10 10 10 9 9 9 9
2 1 1 3 4 4 3 5 5 4 3 3 3 3 3 2 2 3 4 4 3 4 5 5 5 5 3 3 2 2 3 2 1 1 2 3 3 3 2 2 3 5 7 8 9 11 12 14 15 14 14 14 14 14 13 12 12 11 11 10 9 8 7 6 6 6 6 7 7 7 8 8 8 8 8 8 9 9 9 9 10 9 9 9 9 9
2 0 3 4 4 5 5 4 4 3 3 4 3 2 2 3 3 2 5 6 5 5 5 5 5 5 4 3 2 3 3 2 1 1 1 3 3 2 2 2 2 4 6 8 9 10 12 14 15 15 14 14 14 15 13 12 12 12 11 10 9 8 7 6 6 6 6 6 7 7 7 8 8 8 8 8 8 9 9 9 9 8 8 9 9 10
2 2 4 4 4 5 5 4 3 3 4 4 3 2 1 4 5 3 4 4 4 4 4 4 5 4 5 4 2 2 3 2 3 3 2 2 2 3 2 2 2 3 4 6 8 10 12 14 15 15 14 14 15 15 13 12 12 11 11 10 10 8 7 6 6 6 6 6 7 7 7 7 7 7 7 8 8 8 8 8 8 8 8 9 9 10
1 3 4 3 4 4 4 3 2 2 4 3 2 2 3 4 5 4 3 3 3 4 5 5 5 4 4 4 2 3 3 3 4 4 3 2 3 3 3 3 2 2 2 4 6 8 11 13 14 15 14 14 15 15 13 12 12 12 11 11 9 8 7 6 6 6 6 6 6 6 6 6 6 6 7 7 7 8 8 8 8 8 9 9 9 10
1 2 2 1 2 4 3 1 1 2 3 1 1 3 3 3 3 3 3 3 3 5 5 5 5 5 4 4 3 4 3 3 3 3 3 2 2 3 3 2 1 0 1 3 5 7 11 13 14 14 14 14 15 14 13 12 12 12 11 10 9 8 7 7 6 6 6 6 6 6 6 6 6 6 6 7 8 8 9 9 9 9 9 10 10 10
0 2 1 2 2 3 1 2 1 3 2 1 2 3 4 3 2 3 4 3 3 5 4 4 4 4 4 3 3 3 3 3 3 3 3 2 2 2 2 1 0 1 1 3 5 7 10 12 13 13 13 14 14 13 13 12 12 11 11 10 9 8 7 7 6 6 6 6 6 6 6 6 7 7 7 7 8 8 9 9 9 9 10 10 10 11
1 2 2 2 1 1 0 2 2 2 1 2 4 4 4 4 3 4 4 3 3 4 4 4 4 3 3 3 1 2 3 2 2 3 4 3 2 2 2 1 1 2 2 3 5 7 8 10 11 12 13 13 13 13 13 12 11 11 10 10 9 8 7 7 6 6 6 6 7 7 7 7 7 7 7 7 8 8 8 9 9 9 10 10 11 11
2 2 3 2 1 2 3 2 3 3 3 3 4 4 3 4 4 4 5 5 4 4 5 5 5 3 2 3 3 3 3 2 2 2 2 2 1 1 1 0 1 2 2 3 4 6 7 9 10 12 12 12 12 12 12 12 11 11 10 9 9 8 7 7 6 6 6 7 7 7 7 7 8 8 8 8 8 8 9 9 9 10 10 10 11 11
2 1 1 2 2 2 3 3 3 4 4 4 5 4 3 3 4 4 4 4 3 4 5 6 5 2 2 4 3 2 2 2 2 1 0 1 0 1 1 1 1 1 2 3 4 5 6 8 9 11 11 11 11 12 12 12 11 10 10 9 9 9 8 7 7 7 7 7 7 7 8 8 8 8 8 8 8 9 9 9 10 10 10 10 11 11
2 2 2 3 3 2 2 3 3 3 4 4 4 4 3 3 3 2 4 4 4 4 5 6 4 2 4 5 3 0 1 2 2 2 1 0 1 1 1 1 1 0 2 2 3 4 4 6 9 10 11 11 11 12 12 12 11 10 10 10 9 9 8 8 8 7 6 7 7 7 8 8 8 8 8 9 9 9 9 10 10 10 11 11 11 11
2 2 1 2 2 3 2 1 1 2 2 2 2 3 3 2 2 1 2 2 3 4 6 8 5 2 4 5 3 1 3 3 2 1 1 1 0 0 1 1 1 1 2 2 3 4 4 6 8 10 10 11 11 11 12 11 11 11 10 10 10 10 9 9 8 7 7 7 7 7 7 8 8 8 9 9 10 10 10 10 10 11 11 11 11 12
3 0 2 2 2 2 3 2 1 1 2 2 2 4 4 2 2 2 1 1 2 3 5 8 5 2 3 5 4 2 2 2 2 2 2 1 1 1 1 2 2 2 2 3 3 4 5 6 8 9 10 10 11 11 12 12 12 11 11 11 11 11 10 10 9 8 8 8 8 8 8 8 9 9 9 10 10 10 10 10 11 11 11 12 12 12
3 1 3 4 2 2 4 4 3 3 2 2 3 4 4 2 3 3 2 3 4 3 5 6 5 4 4 4 5 4 3 2 2 2 1 1 1 1 2 3 2 3 3 3 4 5 6 7 8 9 10 11 11 11 12 12 12 12 12 12 12 12 11 11 11 10 10 9 9 9 9 9 9 9 10 10 10 11 11 11 11 11 11 12 12 11
1 1 3 4 3 4 5 5 5 3 3 3 3 3 3 3 4 3 3 4 5 3 4 5 5 5 5 4 3 3 2 2 2 2 2 1 2 2 3 3 3 4 4 4 4 5 6 7 8 9 10 11 12 12 13 13 13 13 13 13 13 13 13 13 12 11 11 11 10 11 11 10 10 10 10 11 11 11 11 10 11 11 11 11 11 11
1 0 2 3 3 5 6 6 5 4 4 3 2 3 3 3 4 5 4 3 4 3 5 6 6 5 6 5 4 2 3 4 4 3 3 3 4 4 4 4 5 4 4 4 5 5 5 7 8 10 11 12 12 13 13 14 14 14 14 14 14 14 14 14 13 13 13 12 12 11 12 11 11 11 11 11 11 11 10 10 10 10 10 11 10 10
2 1 2 2 3 4 4 5 5 4 5 4 3 4 4 2 3 4 4 3 2 3 4 6 7 6 5 5 4 4 5 6 5 5 5 5 5 5 4 4 5 4 4 5 5 5 6 7 8 10 11 12 13 13 14 14 15 15 15 15 15 15 15 15 14 14 14 13 12 12 12 12 12 11 11 11 11 11 10 10 10 10 10 10 10 10
2 1 2 4 4 3 3 5 4 3 4 5 4 5 5 4 4 4 4 4 3 2 3 4 5 6 5 5 5 6 6 6 6 6 7 7 6 6 6 5 5 5 5 5 6 6 7 8 9 10 11 12 13 13 14 14 15 15 16 16 16 16 15 15 15 14 14 13 13 12 12 12 12 11 11 11 11 11 10 10 10 10 10 10 10 10
3 2 3 4 4 3 3 4 4 3 3 3 3 4 4 4 4 4 5 6 4 3 3 3 4 6 6 5 6 7 7 7 7 6 7 7 7 7 7 7 6 6 6 6 7 7 8 9 9 10 11 12 13 14 14 15 15 15 15 16 16 16 16 16 15 15 14 13 13 12 12 12 12 11 11 11 11 11 10 10 10 10 11 11 10 10
2 2 3 4 5 4 5 5 4 3 4 4 4 4 4 4 4 3 5 6 6 5 5 3 5 7 6 6 6 7 7 6 6 6 7 8 9 9 9 9 9 8 8 8 7 7 8 9 10 10 11 12 13 14 15 15 15 15 16 16 16 16 16 15 15 15 14 13 12 12 12 12 12 11 11 11 11 11 10 10 10 11 11 11 10 9
3 2 3 5 5 6 6 6 4 4 5 5 6 5 5 5 5 4 5 6 6 6 6 5 6 8 9 9 8 8 7 7 7 8 8 9 10 10 11 11 10 10 9 9 9 9 9 9 10 11 11 12 13 13 14 14 15 15 15 15 16 16 16 15 14 14 14 13 12 12 12 12 12 11 11 11 11 11 10 10 10 11 11 10 9 9
3 3 3 4 5 5 6 6 7 6 6 7 8 7 6 6 6 7 7 6 6 6 6 5 8 10 10 11 12 11 10 10 10 10 10 10 11 11 11 11 11 11 11 11 11 11 11 11 11 12 12 13 13 13 13 13 13 14 14 15 15 16 16 15 14 14 14 13 12 12 11 11 11 11 11 11 11 11 10 10 10 10 10 10 9 9
3 3 3 3 3 4 5 6 7 8 9 8 9 9 8 8 9 9 7 6 7 7 6 6 9 11 12 13 13 13 13 12 13 12 12 12 12 11 11 11 12 12 13 13 13 13 13 13 13 13 13 13 13 12 12 12 12 13 13 14 15 16 16 15 14 13 13 13 12 12 12 11 11 11 10 11 11 10 10 10 10 10 10 9 8 8
3 3 3 2 3 5 6 8 8 8 9 10 11 11 10 9 9 8 7 7 8 7 8 9 10 11 13 14 13 14 14 14 14 14 13 13 13 13 12 12 14 15 15 15 15 15 15 14 14 14 14 14 13 13 12 12 12 12 13 14 14 15 15 15 14 13 13 13 12 12 12 12 12 11 11 11 10 10 9 9 9 9 9 9 8 7
4 5 4 3 4 6 7 8 9 9 9 10 12 12 11 10 9 9 9 10 9 8 11 12 10 10 13 13 13 13 14 14 14 14 13 12 12 11 11 12 13 14 15 16 15 16 16 15 15 14 13 13 13 13 12 12 12 12 12 13 14 14 14 14 14 14 14 13 12 12 12 12 12 11 11 10 10 10 9 9 9 9 9 9 7 6
5 6 6 6 7 8 8 9 9 9 9 10 11 12 11 11 10 10 11 11 9 9 12 13 11 12 13 12 11 12 12 12 13 12 11 9 8 8 9 10 10 11 12 13 14 15 15 15 15 14 13 13 13 13 13 13 13 12 12 13 13 14 14 13 12 13 13 13 13 12 12 12 11 11 10 10 10 9 9 9 9 9 9 8 7 6
6 7 8 7 9 11 11 10 10 10 10 11 12 12 12 11 11 11 12 11 10 11 13 12 12 13 12 11 11 11 10 11 10 9 8 7 6 6 7 8 9 9 10 12 13 14 14 14 15 14 13 13 13 13 13 13 13 12 12 13 13 13 13 12 12 12 12 13 12 12 12 11 11 10 10 10 9 9 9 9 9 9 8 8 6 5
8 9 10 8 9 12 12 11 10 10 11 12 13 13 12 12 11 11 11 10 10 12 12 11 11 12 11 10 11 12 11 10 8 7 7 7 7 7 7 8 9 10 11 12 14 15 14 14 14 15 14 13 13 13 13 13 13 13 13 13 13 13 14 13 13 13 12 13 12 11 11 11 11 11 10 10 9 9 9 9 9 8 8 7 7 6
9 11 11 9 10 12 12 11 11 11 12 12 13 12 12 11 11 11 11 10 10 11 11 11 11 12 12 12 13 13 12 10 8 8 8 8 8 7 8 9 10 11 12 13 14 14 14 13 14 14 15 14 14 13 13 13 13 13 13 13 13 14 14 14 14 13 13 13 12 11 11 11 11 11 11 10 10 10 9 9 9 8 8 7 7 6
10 10 10 10 10 12 12 11 11 11 12 12 11 10 11 11 11 12 12 11 11 11 10 11 12 13 13 13 13 13 13 10 8 8 8 8 8 8 8 9 10 11 12 13 13 13 13 13 13 13 14 15 15 15 14 14 13 14 14 14 14 14 14 15 15 15 14 14 13 12 11 11 11 11 11 11 10 10 9 9 9 8 8 7 7 6
10 10 10 10 10 12 13 12 11 11 10 10 11 10 12 13 13 13 13 13 13 12 12 12 13 14 14 13 13 13 12 9 8 8 8 8 8 8 8 9 10 11 12 12 12 12 12 11 11 12 13 14 16 16 15 15 15 15 14 14 14 14 15 15 15 15 15 15 14 13 12 11 11 11 12 11 10 10 10 9 9 8 8 7 7 6
11 10 11 10 9 11 12 11 11 10 10 12 14 14 13 13 12 11 12 13 13 13 14 14 14 14 13 12 11 10 9 8 7 8 9 9 8 7 8 9 10 10 11 11 10 10 11 10 10 11 12 13 15 15 15 16 16 15 15 14 14 14 15 15 15 16 16 16 15 14 13 12 12 11 12 11 11 10 10 9 9 8 8 7 7 7
11 10 11 11 10 11 10 9 10 12 13 15 16 14 12 11 10 10 12 14 14 15 15 15 14 14 13 11 9 8 7 7 8 9 9 9 9 9 9 10 10 10 11 11 10 10 10 10 9 9 10 12 13 15 15 16 16 15 15 14 15 15 15 15 16 16 16 16 16 15 14 13 12 12 12 12 11 11 11 10 10 9 8 8 7 7
10 10 11 11 11 11 10 11 13 14 14 15 14 12 11 12 12 11 12 14 16 15 14 12 12 13 12 11 10 9 8 8 9 11 11 10 10 10 10 10 10 10 11 11 10 10 10 10 10 9 10 11 12 14 15 15 15 15 14 14 14 14 15 15 16 16 16 16 17 16 15 14 13 13 12 12 12 12 11 11 11 10 9 8 8 8
9 10 11 11 12 11 11 12 13 12 13 13 13 14 14 14 12 10 11 14 16 15 12 10 10 11 10 10 10 10 9 9 11 12 12 12 12 12 12 12 12 11 11 11 11 12 12 12 12 11 11 11 11 12 14 14 14 15 15 15 15 14 15 16 16 16 16 17 17 17 16 15 15 14 13 13 13 13 12 12 12 11 10 9 9 9
8 9 10 11 12 12 11 11 12 12 13 14 15 16 17 15 13 11 12 14 14 14 13 10 9 10 10 9 10 10 10 11 13 14 13 13 14 13 13 14 13 12 12 12 12 13 14 14 14 13 12 12 12 12 13 14 15 15 15 15 15 15 16 17 17 17 17 17 17 17 17 16 16 15 15 14 14 14 13 13 13 12 11 10 10 9
9 10 10 11 12 13 12 12 13 14 14 15 16 17 17 15 13 12 13 14 14 15 14 12 11 12 12 11 11 11 11 12 14 14 14 14 15 15 14 14 14 14 14 14 14 14 14 14 15 15 15 14 14 13 13 14 15 15 16 16 16 16 17 17 18 17 17 17 17 17 17 17 17 16 16 16 15 15 14 14 13 13 12 12 11 10
11 11 11 11 12 13 13 14 15 15 15 16 17 18 17 15 14 14 14 15 15 15 15 14 13 14 14 13 13 13 14 14 15 15 16 16 16 16 16 15 15 16 16 16 15 15 15 15 15 15 16 16 15 14 14 13 14 16 16 17 17 17 17 17 18 18 19 18 18 18 19 18 18 17 17 17 17 16 15 15 14 14 14 13 12 12
12 12 12 12 13 13 14 14 16 16 16 16 16 16 16 15 15 15 15 15 15 16 16 15 16 16 17 17 16 17 18 18 17 17 18 17 17 17 17 17 16 16 17 17 17 16 16 16 16 16 17 17 17 16 15 14 15 16 16 17 18 19 18 18 18 19 19 19 19 20 21 21 19 18 18 18 17 17 17 16 15 15 15 15 14 13
13 13 14 14 13 13 14 14 15 15 16 16 16 16 15 15 15 16 16 17 18 18 18 18 18 18 19 19 19 19 20 20 20 20 19 19 19 19 18 18 18 18 18 18 18 19 19 19 19 19 18 18 18 18 18 17 16 16 16 18 19 19 19 19 19 19 19 19 19 19 21 22 21 20 19 19 18 18 18 17 16 16 16 16 15 15
14 13 14 14 14 14 14 14 15 16 17 17 16 17 17 17 18 18 18 19 21 21 20 21 21 21 21 21 21 21 22 23 23 23 22 21 21 20 20 20 20 20 21 21 21 21 21 21 21 21 21 20 19 19 19 19 18 17 17 18 19 19 19 19 19 19 20 20 20 19 20 22 22 21 20 20 19 19 19 18 18 17 17 17 17 16
15 14 14 15 16 16 15 16 17 17 18 18 17 18 19 19 19 19 20 21 21 21 21 22 23 23 23 23 23 24 24 24 25 25 24 23 23 23 23 23 23 23 23 23 23 24 24 24 24 23 22 22 22 21 20 21 21 20 19 19 19 19 19 19 19 19 20 20 20 20 20 21 22 21 21 21 20 20 20 20 19 18 18 18 18 18
17 17 16 17 18 18 18 18 18 17 18 18 18 18 19 19 19 19 19 20 21 21 22 22 23 23 23 23 24 24 24 25 25 25 25 24 24 24 24 24 25 25 25 25 25 25 25 25 25 25 24 24 24 23 22 22 22 22 22 21 20 19 20 20 20 20 20 20 20 20 20 20 21 21 22 22 21 21 21 21 20 20 19 19 19 19
18 18 17 18 19 18 19 19 20 20 20 20 20 20 21 21 21 21 21 22 22 23 23 24 24 24 25 25 25 25 26 26 26 26 26 26 26 26 26 26 26 26 26 26 27 27 26 26 25 25 25 25 25 24 23 23 23 24 24 23 22 21 20 20 21 21 20 20 20 20 20 21 21 21 21 22 22 22 21 21 21 20 20 20 20 20
18 18 18 18 19 18 20 21 22 22 22 22 22 22 22 23 23 23 23 23 23 24 25 25 25 25 25 26 26 26 26 26 26 26 27 27 27 27 27 27 28 28 28 28 27 27 27 27 26 26 25 25 25 25 24 23 23 23 24 25 25 23 22 22 22 22 21 21 21 20 21 21 22 21 21 21 22 22 22 22 21 21 21 21 21 21
19 19 19 19 20 20 21 22 23 22 23 23 23 24 24 24 24 24 24 24 24 25 25 26 26 26 26 26 27 27 26 27 27 27 28 28 28 28 28 29 29 29 29 29 28 27 27 27 27 27 26 26 25 25 25 25 24 23 24 25 26 26 24 23 23 23 23 22 22 22 22 22 22 22 22 22 22 22 22 22 22 22 22 22 22 22
19 20 20 19 20 21 21 22 22 22 23 24 25 25 25 25 25 25 25 24 25 25 25 26 26 27 27 27 26 26 26 27 27 27 27 28 28 29 29 29 29 29 29 29 28 27 27 27 27 27 27 27 26 26 26 26 26 25 24 24 25 26 27 26 25 24 24 24 23 23 23 23 23 22 22 22 22 22 23 23 23 23 22 22 22 22
18 19 19 19 20 21 22 23 23 22 23 24 25 25 25 25 25 25 25 25 25 26 26 26 27 27 27 26 26 26 26 27 27 27 27 28 29 29 29 29 29 29 29 29 28 28 28 28 27 28 28 28 28 27 28 28 27 27 26 25 25 26 27 28 27 27 26 26 25 25 24 24 23 23 23 23 23 23 23 23 23 23 23 23 23 23
Wind_Direction
97 63 43 55 63 85 313 51 96 1 32 29 31 40 39 36 30 42 54 57 78 72 54 72 74 72 94 88 104 130 143 204 269 289 300 273 232 228 231 226 226 228 225 221 216 214 212 210 207 206 207 204 201 203 202 199 200 201 201 201 203 209 216 223 235 252 265 271 274 276 276 277 279 279 284 288 285 284 285 287 291 293 292 290 290 290
91 94 49 304 291 259 261 80 96 12 15 35 39 42 40 41 33 43 65 64 68 63 48 67 74 59 90 82 91 97 79 86 214 210 247 253 205 221 231 222 220 225 224 219 216 215 215 212 209 208 209 206 204 205 205 204 204 204 204 205 210 217 222 232 245 260 271 273 273 275 275 275 277 278 281 284 283 284 287 290 293 293 292 292 292 291
94 106 278 313 2 49 43 49 64 322 14 40 33 39 41 43 39 35 48 54 53 43 34 59 62 34 50 64 75 90 55 337 214 208 209 195 184 207 219 216 215 217 221 222 218 216 215 213 210 209 209 209 209 208 207 207 207 207 208 211 216 222 227 238 253 266 272 272 272 274 274 274 278 281 280 280 281 284 290 294 295 294 293 293 293 294
133 217 273 336 35 65 24 18 34 17 46 44 30 39 39 46 51 35 23 39 52 37 35 53 32 12 32 46 43 69 24 349 239 227 222 214 212 217 217 219 218 214 219 224 223 219 215 213 212 210 210 210 209 209 209 209 209 209 212 215 218 222 229 242 259 270 272 271 272 273 275 275 279 284 284 284 284 285 289 293 294 295 295 296 297 298
146 224 338 26 39 48 10 15 43 60 58 32 30 49 50 45 22 11 32 43 36 17 28 47 21 -0 22 47 30 18 23 14 252 234 250 252 252 248 236 236 236 228 226 228 225 221 217 214 213 212 210 208 206 207 210 210 211 211 213 215 216 220 231 247 262 269 272 275 275 276 278 277 280 285 286 285 284 285 288 291 291 294 296 297 300 303
126 1 44 53 40 30 30 33 39 65 60 24 19 42 67 58 12 10 51 48 34 11 8 42 31 357 2 32 40 28 27 29 27 349 262 263 279 286 278 275 262 244 237 236 228 219 215 212 210 210 209 206 204 206 209 210 211 211 212 213 214 220 233 249 261 267 273 279 279 277 278 278 279 283 284 281 280 283 288 289 289 292 297 299 301 304
97 29 49 68 53 32 37 41 28 54 56 19 350 346 30 52 38 49 68 53 40 14 355 32 41 5 358 11 36 45 34 24 18 1 304 274 293 306 297 293 276 249 241 238 228 216 209 207 205 206 207 206 204 205 206 208 210 210 210 212 214 222 235 249 258 264 271 278 280 278 277 277 277 283 287 285 284 287 290 290 289 293 298 300 301 304
95 38 44 59 48 30 25 27 10 44 52 11 347 32 32 28 29 46 65 40 22 15 5 17 33 22 2 355 14 50 48 21 360 343 330 308 299 306 302 304 289 246 226 218 215 206 198 198 201 202 202 203 202 203 204 206 209 209 210 213 217 225 236 248 256 263 271 274 278 281 280 279 282 288 292 291 292 294 293 292 291 293 295 299 301 302
133 36 29 72 47 25 15 354 336 41 54 356 6 40 21 5 13 30 40 18 12 23 5 352 15 20 352 346 20 41 36 3 336 324 335 327 296 297 296 302 322 236 197 183 186 189 189 192 197 197 197 199 200 201 202 205 208 208 210 214 219 227 237 247 254 262 273 273 274 279 279 281 288 292 292 295 297 296 293 292 291 293 294 297 300 303
205 29 56 115 72 10 329 246 317 47 61 352 13 13 358 356 358 11 17 5 10 19 354 331 5 14 339 337 28 29 350 328 331 343 357 348 293 283 286 291 65 94 143 161 166 175 183 187 190 190 192 196 197 198 199 202 206 207 211 215 221 229 236 244 251 259 271 274 274 279 279 281 289 293 293 296 297 294 292 290 288 290 294 296 299 302
342 38 49 77 99 30 35 239 295 347 339 3 11 356 352 0 1 3 2 11 17 356 329 319 342 2 341 327 347 3 345 347 27 21 13 0 316 286 287 299 105 119 137 153 161 168 176 181 184 185 188 193 193 195 198 202 205 207 211 217 222 229 236 241 250 261 272 276 277 280 283 283 286 291 294 293 293 292 291 289 287 287 290 295 298 300
23 33 14 20 75 70 62 21 337 343 351 11 7 350 343 347 1 5 359 19 27 331 311 323 340 14 7 322 302 327 355 49 83 54 29 17 348 286 277 255 112 129 149 158 165 169 173 179 183 185 190 193 194 197 200 203 205 207 212 218 222 228 235 241 251 262 273 279 280 282 285 285 286 290 293 293 293 292 290 288 287 286 288 293 296 299
44 33 4 40 60 62 51 21 359 356 1 11 11 18 21 356 9 7 349 4 1 316 316 334 345 7 345 317 296 319 6 73 112 123 94 40 54 252 283 240 145 123 157 171 177 180 181 184 186 188 191 194 196 201 203 204 207 210 215 220 223 229 236 242 250 261 272 280 283 284 286 287 289 293 294 294 296 296 293 290 287 286 288 290 293 297
33 358 22 49 25 15 44 30 355 335 341 359 13 36 48 29 30 357 334 351 343 322 332 347 356 353 336 327 312 237 149 170 168 171 197 169 174 237 301 261 195 178 176 179 184 190 194 193 192 193 195 196 199 203 205 206 210 214 218 222 226 232 238 243 250 259 270 280 284 287 288 288 290 292 293 295 297 297 296 293 289 288 288 288 290 293
43 357 10 37 352 351 15 351 291 306 330 334 6 47 41 35 56 347 327 349 333 319 336 352 4 9 353 341 326 175 165 179 170 120 60 98 141 327 349 348 266 237 216 206 201 198 200 197 196 198 201 202 205 207 208 210 215 219 223 227 231 235 240 245 250 258 268 277 283 286 289 290 289 289 291 295 297 297 296 294 291 290 289 288 287 288
55 37 290 317 321 21 24 351 352 54 5 322 4 29 2 357 62 22 12 358 341 342 343 350 1 9 12 5 1 35 91 86 75 53 50 47 5 11 340 316 286 250 240 234 224 214 206 200 200 203 206 209 211 212 213 216 220 224 228 232 235 239 243 248 252 258 267 274 278 282 287 289 288 288 291 294 297 297 296 294 292 290 290 290 288 286
54 10 327 356 14 31 24 11 26 56 31 356 16 6 341 10 70 38 5 356 13 20 347 359 18 10 12 16 6 20 36 33 41 40 34 0 348 331 293 294 284 266 254 241 231 223 215 209 207 209 211 214 216 218 220 223 227 229 233 237 240 243 246 250 254 260 266 271 275 279 283 285 286 286 289 293 295 296 295 294 293 293 294 295 292 287
78 315 340 32 35 349 0 17 20 33 52 36 10 346 342 13 30 31 11 356 13 12 332 359 18 1 7 1 333 358 3 312 321 343 341 326 309 293 283 277 272 271 261 245 237 231 225 220 218 218 219 222 223 226 228 231 234 236 238 242 244 246 248 250 254 258 263 268 273 277 279 281 283 285 288 291 293 294 295 295 295 296 298 300 296 290
66 330 324 25 19 345 9 32 18 6 28 42 2 347 11 18 3 8 10 349 353 341 322 340 350 351 6 355 317 310 296 286 293 311 319 309 291 287 280 271 273 276 267 256 249 243 237 230 228 227 227 229 230 232 234 236 239 241 242 245 247 249 250 250 253 255 260 265 270 275 278 279 282 285 287 290 292 294 294 294 295 295 299 302 300 296
30 55 292 321 346 354 11 22 11 347 354 6 351 347 2 14 355 358 0 344 339 331 316 331 341 341 344 335 315 301 292 284 286 301 306 293 280 282 279 275 277 270 262 260 255 253 249 241 239 237 235 234 235 236 239 240 242 244 245 247 250 252 252 251 252 254 257 262 267 272 276 278 281 283 286 288 290 292 293 293 294 295 300 305 302 299
356 0 285 300 332 359 356 355 0 341 338 350 348 343 342 339 340 345 346 346 353 335 305 319 330 323 319 319 319 318 306 289 283 294 300 291 281 279 275 271 271 264 261 264 263 263 260 253 249 246 242 241 241 242 244 245 247 248 248 249 250 252 252 250 250 252 256 260 265 269 273 277 279 280 283 286 288 290 291 293 295 295 301 306 304 301
314 309 294 299 316 328 320 332 353 356 348 351 346 343 340 338 346 345 328 328 336 322 294 292 299 301 310 319 321 327 324 310 302 303 302 291 281 277 273 269 269 268 266 265 266 269 267 261 255 251 249 248 247 247 247 249 251 251 250 250 251 251 250 249 249 250 253 258 263 267 270 273 276 276 279 284 287 288 290 293 295 297 301 304 304 302
299 305 303 296 287 276 285 309 343 6 10 4 350 348 350 345 349 344 314 311 319 317 308 301 289 285 292 303 314 327 330 320 310 308 301 290 281 276 272 271 270 272 273 269 267 271 272 267 260 256 254 253 252 251 251 252 252 251 251 251 250 248 248 248 248 249 251 255 261 266 268 270 272 274 276 280 283 286 289 293 297 298 300 302 302 300
319 324 314 301 291 284 287 297 314 343 0 351 336 337 345 340 335 325 309 308 312 310 309 309 294 282 284 291 298 311 318 309 299 299 295 290 288 282 276 272 270 271 276 274 270 272 275 272 268 263 259 257 256 256 255 255 254 252 251 251 250 247 246 247 249 249 250 253 260 265 267 268 270 272 274 277 279 283 289 296 300 301 301 303 302 298
319 312 316 319 314 309 304 301 305 314 325 326 319 320 325 329 331 325 319 321 314 299 295 295 287 281 286 292 294 299 305 299 291 291 290 287 287 284 277 274 272 273 276 275 273 274 277 277 272 265 261 260 260 259 257 256 255 254 252 251 250 249 247 246 247 247 248 252 257 261 264 267 270 271 272 274 276 281 289 298 304 304 304 305 303 298
320 306 311 314 301 293 291 293 297 301 306 310 311 312 313 319 324 321 317 319 310 298 296 292 287 288 292 296 297 298 300 296 292 292 289 285 284 283 278 274 274 276 277 277 276 276 277 277 273 266 262 261 260 259 259 257 256 256 255 252 252 250 246 244 245 247 248 250 253 257 261 265 267 269 271 272 274 280 289 297 303 306 307 306 304 297
339 330 319 297 271 272 275 279 288 297 302 303 304 305 307 310 315 317 315 310 303 301 301 296 293 296 298 298 298 297 296 295 293 292 288 283 282 282 281 279 279 278 277 278 279 278 277 275 273 267 264 262 260 259 259 259 258 258 257 255 252 249 243 242 246 249 248 249 252 255 258 262 265 266 268 271 273 279 288 294 299 306 309 309 304 295
341 328 316 303 285 278 273 276 287 298 298 298 301 301 298 301 306 308 303 299 301 305 302 299 300 302 301 299 296 295 294 295 296 296 293 290 285 281 284 290 292 288 283 281 280 279 276 272 270 267 263 261 261 259 259 261 262 260 257 254 251 246 242 243 247 248 247 248 251 255 257 260 263 264 264 267 271 277 285 291 297 304 310 310 303 291
324 307 299 305 302 294 288 286 295 302 298 297 302 300 296 298 302 300 292 288 294 298 297 298 300 299 299 299 299 297 294 296 300 300 297 297 292 283 285 296 303 303 297 292 288 284 278 271 267 264 259 256 256 257 260 263 264 260 255 253 250 246 242 242 244 245 244 245 250 255 256 257 260 260 261 263 267 275 283 289 294 301 309 312 302 284
314 299 292 301 307 303 299 297 303 309 304 300 301 299 297 299 300 298 290 284 283 288 293 298 299 297 297 295 296 297 296 298 304 304 297 295 293 291 294 299 303 304 301 298 296 293 286 276 268 263 258 253 252 254 259 263 261 256 252 250 250 247 242 240 244 246 244 245 250 254 254 254 256 256 257 260 266 273 281 287 292 297 305 310 302 281
307 297 293 301 308 303 300 300 305 308 303 300 298 297 299 303 306 305 298 292 289 291 300 308 306 302 300 296 296 301 306 308 308 304 301 296 290 292 298 300 300 301 302 302 300 297 292 282 274 266 259 254 251 253 258 260 257 253 251 250 249 248 243 241 245 249 247 247 251 253 252 252 253 253 254 258 264 271 277 283 288 293 298 305 301 282
301 297 298 307 307 298 298 304 307 309 309 304 300 300 303 302 301 300 299 297 291 292 303 312 307 299 298 301 303 304 309 312 306 302 305 302 297 297 299 301 300 299 301 304 304 300 292 284 278 270 260 254 251 253 257 259 257 255 254 251 249 249 245 243 245 247 248 249 251 252 253 252 251 252 253 256 262 268 273 279 284 287 291 297 297 281
291 293 296 299 297 293 296 303 306 312 315 305 295 298 302 299 297 298 300 298 293 292 298 299 294 290 292 299 304 304 306 308 303 302 306 306 307 308 304 303 303 299 299 302 304 302 295 285 280 273 264 257 253 253 256 258 258 257 256 253 251 249 247 246 246 246 247 248 249 251 253 253 252 251 252 255 259 264 269 274 279 281 284 289 290 281
287 286 288 290 290 290 293 301 309 312 306 294 288 292 295 295 295 296 296 294 292 293 293 292 293 294 295 296 296 296 300 303 301 302 306 307 311 313 311 309 306 302 301 302 302 303 301 294 285 276 269 262 256 255 257 259 259 259 258 255 252 250 248 247 245 244 244 246 248 249 250 252 252 251 252 254 256 258 263 268 273 276 280 282 281 278
283 284 288 290 289 289 294 307 312 300 286 288 294 293 290 290 291 292 293 294 295 297 297 297 297 298 299 299 296 294 298 303 305 309 312 312 311 314 319 320 315 310 307 304 302 302 303 304 298 284 275 268 262 260 261 262 262 261 260 258 255 253 250 246 244 243 243 244 246 247 247 249 250 250 250 251 252 254 257 263 268 270 274 276 274 274
276 280 285 288 289 292 297 302 297 289 289 297 300 298 296 297 299 302 301 299 299 300 298 293 292 293 299 304 302 296 296 302 309 311 312 313 313 316 321 324 321 316 311 306 301 300 301 304 303 294 284 275 268 264 263 262 261 260 260 260 258 255 252 247 244 241 241 242 244 244 244 246 248 248 248 249 250 251 254 259 263 264 268 270 269 269
271 275 279 283 286 289 292 291 293 297 300 302 301 297 296 296 295 297 298 296 299 303 301 294 292 294 299 301 296 286 288 302 309 307 305 306 308 312 318 321 320 318 314 307 299 298 301 301 300 298 294 285 275 267 263 261 258 256 258 260 258 256 253 248 243 240 240 241 242 242 243 244 244 244 246 248 248 249 252 256 259 261 262 264 262 262
272 269 270 277 284 290 294 295 299 302 298 294 294 293 293 293 287 287 296 297 299 306 306 297 295 297 298 299 293 284 285 294 295 294 297 301 303 307 313 315 315 315 315 311 303 298 299 299 298 297 295 291 284 274 266 261 257 256 258 260 259 257 254 248 242 240 240 240 241 241 242 242 241 241 244 247 248 249 251 254 256 257 258 258 258 258
298 282 274 279 285 289 292 292 292 293 291 290 291 293 297 295 284 287 299 296 294 304 307 300 298 298 295 294 292 287 286 286 283 283 288 293 297 301 305 308 308 307 307 309 305 299 298 299 298 296 293 290 286 280 272 264 260 257 258 260 261 259 255 248 243 240 239 240 242 242 241 239 239 241 244 247 249 250 250 252 253 254 254 255 256 256
307 294 286 284 285 286 289 289 288 290 291 292 293 296 300 296 288 292 295 287 288 300 304 302 302 300 296 294 291 287 283 281 279 280 283 288 292 295 298 299 300 300 302 305 305 301 299 299 297 294 292 288 284 282 277 269 263 260 259 260 260 259 256 251 246 243 243 244 245 244 241 239 239 242 245 247 248 249 250 250 250 251 251 251 253 254
299 294 289 285 283 285 286 286 288 290 289 291 294 298 300 296 293 292 285 279 285 294 297 299 301 299 297 296 293 287 283 280 281 283 284 287 291 293 294 295 296 297 299 301 302 301 301 300 298 295 292 289 284 282 279 273 267 263 261 260 259 258 257 254 250 248 247 248 248 245 241 240 242 243 245 248 249 249 249 248 248 248 248 248 249 250
295 295 292 287 285 286 285 285 291 293 291 291 295 299 301 296 289 284 281 281 286 290 292 295 296 295 295 293 290 288 286 285 286 287 287 288 288 289 290 292 294 296 297 297 298 299 299 299 299 296 294 291 285 280 278 275 270 267 264 262 260 258 257 256 254 252 250 250 251 248 242 241 245 248 247 249 250 249 247 247 247 247 248 247 246 246
291 291 291 287 286 289 290 291 294 294 293 295 298 298 297 291 283 280 283 285 286 287 287 287 288 290 291 290 288 287 286 286 286 286 286 287 287 287 288 290 291 293 293 293 293 294 295 296 296 294 292 291 286 280 276 274 272 271 267 264 263 261 258 257 256 254 251 250 252 250 243 241 245 250 249 248 249 248 246 245 245 246 247 246 245 244
291 291 290 289 290 292 291 290 291 290 291 294 294 290 287 285 282 282 283 285 286 285 284 283 284 284 284 285 286 286 286 285 283 281 282 283 284 285 287 288 289 290 290 289 289 290 291 292 293 291 290 289 287 282 276 272 272 271 268 267 267 264 259 257 256 254 252 250 250 250 246 243 245 248 249 248 247 246 245 244 244 244 245 246 245 244
289 288 286 286 289 289 285 285 288 291 293 294 293 290 289 288 286 284 284 285 286 285 285 285 285 284 282 282 284 284 283 282 280 279 279 279 281 282 284 285 286 287 287 287 286 286 287 288 288 289 288 287 285 282 277 272 270 269 268 269 269 264 259 257 255 254 253 251 250 250 248 246 246 246 247 248 247 245 244 243 243 242 242 243 244 243
286 289 288 286 288 289 287 288 291 294 295 296 296 294 292 289 287 285 285 285 286 286 286 286 286 285 284 284 284 284 283 281 280 279 278 278 280 281 282 283 284 285 286 286 285 284 285 285 285 286 286 286 284 280 277 273 270 268 268 269 268 264 260 257 254 253 253 252 251 249 247 246 246 245 245 247 248 246 245 244 243 241 240 240 241 242
289 294 291 286 288 289 287 288 292 292 292 293 294 295 294 291 287 286 286 286 286 285 285 284 283 283 283 283 283 283 282 281 280 279 278 278 279 280 281 282 283 285 285 285 284 284 283 283 283 284 284 284 283 281 278 276 272 269 267 267 265 263 260 257 254 253 252 252 250 248 246 245 245 245 246 246 246 246 246 245 244 242 240 239 239 240
291 296 293 287 287 287 284 286 291 292 291 292 294 296 296 294 291 290 290 289 288 287 286 285 284 283 283 283 283 282 282 281 281 280 279 279 280 280 281 281 282 284 285 285 284 284 283 281 281 282 282 281 281 280 279 278 275 272 269 266 263 261 259 257 255 253 251 250 249 248 246 245 244 245 247 246 245 245 245 245 244 243 242 241 239 239
291 293 290 288 289 289 286 289 294 294 293 294 296 296 296 294 292 293 292 291 292 292 291 289 287 284 283 284 284 282 281 281 281 281 281 281 281 281 281 282 283 284 284 283 283 283 282 281 281 281 280 279 278 278 278 277 276 275 272 268 263 259 258 257 256 254 252 250 248 247 247 245 245 246 247 245 244 244 244 244 245 245 245 244 242 240
291 290 289 291 293 290 287 289 293 292 290 291 294 295 294 293 292 293 293 293 293 293 292 291 289 287 285 285 283 282 282 282 282 282 282 282 282 282 282 283 284 284 283 283 283 282 281 281 281 281 280 279 277 276 276 276 275 274 273 271 265 259 257 256 256 254 252 250 248 247 247 246 245 246 246 245 244 245 245 246 246 247 248 247 245 243
290 289 291 292 291 288 287 288 291 291 289 290 293 293 292 291 291 291 291 292 293 292 291 291 290 289 287 286 285 284 284 284 283 283 283 283 283 283 283 283 283 283 283 282 282 282 281 280 279 279 279 279 278 276 274 274 274 272 271 271 267 262 258 257 256 255 254 252 249 247 246 245 246 246 245 244 244 244 245 246 247 249 249 249 247 244